Tracking 25734 objects as of 28-May-2022
HD Live streaming from Space Station
objects crossing your sky now

FREGAT R/B

Track FREGAT R/B now!


NORAD ID: 44300
Int'l Code: 2019-030B
Perigee: 19,255.0 km
Apogee: 19,679.7 km
Inclination: 64.4 °
Period: 688.9 minutes
Semi major axis: 25838 km
RCS: Unknown
Launch date: May 27, 2019
Source: Commonwealth of Independent States (former USSR) (CIS)
Launch site: PLESETSK MISSILE AND SPACE COMPLEX (PKMTR)

Note: This is a ROCKET BODY
aabbcc
Your satellite tracking list
Your tracking list is empty




NASA's NSSDC Master Catalog

Two Line Element Set (TLE):
1 44300U 19030B   22145.91945779 -.00000039  00000-0  00000-0 0  9992
2 44300  64.3932 244.2527 0082189 134.4484 226.2458  2.09028939 22883
Source of the keplerian elements: AFSPC